Location: Lafig�re
(44.4503°N, 4.0357°E)
Time: 14:22:23
(UTC+00:00)

Transit 2A Rocket - Pass Details

Date: 30 January 2021
Orbit: 594 x 908 km, 66.7° (Epoch: 06 March)

Event Time Altitude Azimuth Distance (km) Brightness Sun altitude
Rises 17:03:53 0° 340° (NNW) 2,942 8.0 -3.0°
Reaches altitude 10° 17:08:02 10° 16° (NNE) 1,976 6.8 -3.7°
Maximum altitude 17:09:17 11° 33° (NNE) 1,897 6.6 -3.9°
Drops below altitude 10° 17:10:30 10° 49° (NE) 1,952 6.5 -4.1°
Enters shadow 17:12:38 - 73° (ENE) 2,322 6.8 -4.5°
Sets 17:14:30 0° 87° (E) 2,832 - -4.8°
